Temp
9 9 9 9 9 9 9 9 9 9 9 9 9 9 9 9 9 9 9 9 9 9 9 9 10 10 10 10 10 10 10 10 10 9 10 10 10 10 10 10 10 10
9 9 9 9 9 9 9 9 9 9 9 9 9 9 9 9 9 9 9 9 9 9 9 9 10 10 10 10 10 10 10 10 10 9 9 10 10 10 10 10 10 10
9 9 9 9 9 9 9 9 9 9 9 9 9 9 10 10 10 10 10 9 9 9 9 9 10 10 10 10 10 10 10 10 10 9 9 10 10 10 10 10 10 10
9 9 9 9 9 9 9 9 9 9 9 9 9 9 10 10 10 10 10 10 10 10 10 10 10 10 10 10 10 10 10 10 10 9 10 10 10 10 10 10 10 10
9 9 9 9 9 9 9 9 10 10 9 9 9 9 10 10 10 10 10 10 10 10 10 10 10 10 10 10 10 10 9 9 10 10 10 10 10 10 10 10 10 10
9 9 9 9 9 9 10 10 10 10 9 9 9 9 10 10 10 10 10 10 10 10 10 10 10 10 10 10 10 10 10 10 10 10 10 10 10 10 10 10 10 10
10 9 9 9 9 9 10 10 10 10 9 9 10 10 10 10 10 10 10 10 10 10 10 10 10 10 10 10 10 10 10 10 10 10 10 10 10 10 10 10 10 10
10 10 10 10 10 10 10 10 10 10 10 10 10 10 10 10 10 10 10 10 10 10 10 10 10 10 10 10 10 10 10 10 10 10 10 10 10 10 10 10 10 10
10 10 10 10 10 10 10 10 10 10 10 10 10 10 10 10 10 10 10 10 10 10 10 10 10 10 10 10 10 10 10 10 10 10 10 10 10 10 10 10 10 10
10 10 10 10 10 10 10 10 10 10 10 10 10 10 10 10 10 10 10 10 10 10 10 10 10 10 10 10 10 10 10 10 10 10 10 10 10 10 10 10 10 10
10 10 10 10 10 10 10 10 10 10 10 10 10 10 10 10 10 10 10 10 10 10 10 10 10 10 10 10 10 10 10 10 10 10 10 10 10 10 10 10 10 10
10 10 10 10 10 10 10 10 10 10 10 10 10 10 10 10 10 10 10 10 10 10 10 10 10 10 10 10 10 10 10 10 10 10 10 10 10 10 10 10 10 10
10 10 10 10 10 10 10 10 10 10 10 10 10 10 10 10 10 10 10 10 10 10 10 10 10 10 10 10 10 10 10 10 10 10 10 10 10 10 10 10 10 10
10 10 10 10 10 10 10 10 10 10 10 10 10 10 10 10 10 10 10 10 10 10 10 10 10 10 10 10 10 10 10 10 10 10 10 10 10 10 10 10 10 10
10 10 10 10 10 10 10 10 10 10 10 10 10 10 10 10 10 10 10 10 10 10 10 10 10 10 10 10 10 10 10 10 10 10 10 10 10 10 10 10 10 10
10 10 10 10 10 10 10 10 10 10 10 10 10 10 10 10 10 10 10 10 10 10 10 10 10 10 10 10 10 10 10 10 10 10 10 10 10 10 10 10 10 10
10 10 10 10 10 10 10 10 10 10 10 10 10 10 10 10 10 10 10 10 10 10 10 9 9 10 9 9 9 10 10 10 10 10 10 10 10 10 10 10 10 10
9 10 10 10 10 10 10 10 10 10 10 10 10 10 10 10 10 10 10 10 9 9 10 10 9 10 10 9 9 9 9 9 10 10 10 9 9 9 9 9 10 9
9 9 10 10 10 10 10 10 10 10 10 10 10 10 10 10 10 10 10 10 9 9 9 9 9 10 10 9 9 9 9 9 9 9 9 9 9 9 9 9 9 9
9 9 9 9 10 10 10 10 10 10 10 10 10 10 10 10 10 10 10 9 9 9 9 9 9 10 9 9 9 9 9 9 9 9 9 9 9 9 9 9 9 9
9 9 9 9 9 9 9 9 9 10 10 10 10 10 10 10 10 10 10 9 9 9 9 9 10 10 9 9 9 9 9 9 9 9 9 9 9 9 9 9 9 9
9 9 9 9 9 9 9 9 9 9 9 9 10 10 10 10 10 10 10 10 10 9 9 9 10 10 9 9 9 9 9 9 9 9 9 9 9 9 9 9 9 9
9 9 9 9 9 9 9 9 9 9 9 9 9 9 9 9 9 9 9 9 9 9 9 9 9 9 9 9 9 9 9 9 9 9 9 9 9 9 9 9 9 9
9 9 9 9 9 9 9 9 9 9 9 9 9 9 9 9 9 9 9 9 9 9 9 9 9 9 9 9 9 9 9 9 9 9 9 9 9 9 9 9 10 9
9 9 9 9 9 9 9 9 9 9 9 9 9 9 9 9 9 9 9 9 9 9 9 9 9 9 9 9 9 9 9 9 9 9 9 9 9 9 9 10 10 10
9 9 9 9 9 9 9 9 9 9 9 9 9 9 9 9 9 9 9 9 9 9 9 9 9 9 9 9 9 9 9 9 9 9 9 9 9 9 9 9 9 9
Height
3230 3231 3233 3234 3235 3236 3237 3238 3239 3240 3241 3242 3243 3244 3244 3245 3246 3247 3248 3248 3249 3250 3250 3251 3251 3252 3252 3253 3253 3254 3254 3255 3255 3255 3256 3256 3257 3257 3257 3258 3258 3258
3230 3231 3232 3233 3235 3236 3237 3238 3239 3240 3240 3241 3242 3243 3244 3245 3246 3246 3247 3248 3248 3249 3250 3250 3251 3251 3252 3252 3252 3253 3253 3254 3254 3254 3255 3255 3255 3256 3256 3256 3257 3257
3230 3231 3232 3233 3234 3236 3236 3237 3238 3239 3240 3241 3242 3242 3243 3244 3245 3246 3246 3247 3248 3248 3249 3249 3250 3250 3251 3251 3252 3252 3252 3253 3253 3253 3254 3254 3254 3255 3255 3255 3255 3255
3229 3230 3232 3233 3234 3235 3236 3237 3238 3239 3240 3240 3241 3242 3243 3244 3244 3245 3246 3246 3247 3248 3248 3249 3249 3250 3250 3250 3251 3251 3251 3252 3252 3252 3253 3253 3253 3253 3254 3254 3254 3254
3229 3230 3231 3232 3233 3234 3235 3236 3237 3238 3239 3240 3241 3241 3242 3243 3244 3244 3245 3246 3246 3247 3247 3248 3248 3249 3249 3250 3250 3250 3251 3251 3251 3252 3252 3252 3252 3253 3253 3253 3253 3253
3229 3230 3231 3232 3233 3234 3235 3236 3237 3237 3238 3239 3240 3241 3241 3242 3243 3244 3244 3245 3246 3246 3247 3247 3248 3248 3248 3249 3249 3250 3250 3250 3250 3251 3251 3251 3251 3252 3252 3252 3252 3252
3228 3229 3230 3231 3232 3233 3234 3235 3236 3237 3238 3238 3239 3240 3241 3241 3242 3243 3243 3244 3245 3245 3246 3246 3246 3247 3247 3248 3248 3249 3249 3249 3250 3250 3250 3250 3250 3251 3251 3251 3251 3251
3227 3228 3229 3230 3231 3232 3233 3234 3235 3236 3237 3238 3238 3239 3240 3241 3241 3242 3242 3243 3244 3244 3245 3245 3245 3246 3246 3247 3247 3247 3248 3248 3249 3249 3249 3249 3249 3250 3250 3250 3250 3250
3225 3227 3228 3229 3230 3231 3232 3233 3234 3235 3236 3237 3238 3238 3239 3240 3240 3241 3241 3242 3243 3243 3243 3244 3244 3245 3245 3245 3246 3246 3247 3247 3247 3248 3248 3248 3248 3248 3248 3248 3248 3248
3224 3225 3227 3228 3229 3230 3231 3232 3233 3234 3235 3236 3237 3237 3238 3239 3239 3240 3240 3241 3241 3242 3242 3242 3243 3243 3244 3244 3244 3245 3245 3246 3246 3246 3246 3246 3247 3247 3247 3247 3247 3247
3223 3224 3226 3227 3228 3229 3230 3231 3232 3233 3233 3234 3235 3236 3236 3237 3238 3238 3239 3240 3240 3240 3241 3241 3242 3242 3242 3243 3243 3244 3244 3244 3244 3244 3245 3245 3245 3245 3245 3245 3245 3245
3222 3223 3224 3226 3227 3228 3229 3230 3230 3231 3232 3233 3233 3234 3235 3236 3236 3237 3238 3238 3239 3239 3240 3240 3240 3241 3241 3242 3242 3242 3242 3243 3243 3243 3243 3243 3243 3243 3243 3243 3243 3243
3221 3222 3223 3224 3225 3227 3227 3228 3229 3230 3231 3232 3232 3233 3234 3234 3235 3235 3236 3236 3237 3237 3238 3238 3239 3239 3240 3240 3240 3241 3241 3241 3241 3241 3241 3241 3241 3241 3241 3241 3241 3241
3219 3220 3222 3223 3224 3225 3226 3227 3228 3229 3229 3230 3231 3231 3232 3233 3233 3234 3234 3235 3235 3236 3236 3237 3237 3237 3238 3238 3238 3239 3239 3239 3239 3239 3239 3239 3239 3239 3239 3239 3239 3239
3217 3218 3219 3220 3222 3223 3224 3225 3226 3227 3228 3228 3229 3230 3231 3231 3232 3232 3233 3233 3234 3234 3235 3235 3235 3235 3236 3236 3236 3237 3237 3237 3237 3237 3237 3237 3238 3238 3238 3237 3237 3237
3214 3216 3217 3218 3219 3220 3221 3222 3223 3224 3225 3226 3227 3228 3229 3229 3230 3230 3231 3231 3232 3232 3233 3233 3233 3233 3232 3233 3234 3234 3234 3235 3235 3235 3235 3235 3235 3236 3236 3236 3235 3235
3212 3213 3214 3216 3217 3218 3219 3220 3221 3222 3223 3224 3225 3225 3226 3227 3228 3228 3229 3229 3230 3230 3230 3230 3230 3228 3229 3231 3232 3232 3232 3232 3232 3232 3232 3232 3232 3232 3233 3233 3233 3233
3210 3211 3212 3214 3215 3216 3217 3217 3218 3219 3220 3221 3222 3223 3224 3225 3225 3226 3226 3227 3227 3227 3228 3228 3226 3226 3228 3231 3231 3230 3229 3229 3228 3228 3227 3228 3228 3229 3229 3229 3230 3230
3208 3209 3210 3211 3212 3213 3214 3215 3216 3217 3218 3219 3220 3221 3221 3222 3223 3224 3224 3225 3225 3225 3225 3225 3225 3225 3227 3228 3227 3228 3227 3227 3226 3225 3225 3226 3226 3227 3227 3226 3226 3227
3204 3206 3207 3209 3210 3211 3212 3213 3214 3215 3216 3217 3218 3218 3219 3219 3220 3221 3221 3222 3222 3222 3223 3223 3223 3224 3225 3225 3225 3225 3225 3225 3223 3223 3224 3225 3224 3224 3224 3223 3222 3223
3201 3203 3205 3206 3207 3208 3209 3211 3212 3213 3214 3215 3215 3216 3216 3217 3218 3218 3218 3219 3219 3219 3220 3220 3220 3221 3222 3222 3222 3223 3223 3222 3221 3220 3221 3222 3221 3221 3220 3220 3220 3220
3199 3201 3202 3203 3204 3205 3206 3208 3209 3210 3211 3211 3212 3213 3213 3214 3215 3215 3216 3216 3216 3217 3217 3216 3217 3218 3219 3219 3220 3221 3220 3220 3219 3218 3218 3218 3218 3218 3217 3216 3215 3215
3196 3198 3199 3200 3201 3202 3203 3204 3205 3206 3207 3208 3209 3210 3210 3211 3212 3212 3213 3214 3214 3215 3214 3213 3213 3215 3216 3216 3217 3218 3218 3218 3217 3216 3216 3215 3215 3214 3213 3211 3210 3211
3193 3194 3196 3197 3198 3199 3199 3201 3202 3203 3204 3205 3206 3206 3207 3208 3209 3209 3210 3211 3211 3212 3212 3210 3211 3213 3213 3213 3214 3214 3215 3215 3214 3214 3214 3213 3212 3212 3210 3208 3208 3210
3190 3192 3192 3193 3194 3195 3196 3197 3198 3199 3200 3201 3202 3204 3204 3205 3205 3205 3206 3207 3208 3209 3209 3208 3209 3210 3210 3210 3211 3211 3211 3212 3211 3211 3211 3210 3210 3209 3207 3206 3207 3208
3187 3188 3189 3190 3191 3192 3194 3195 3195 3196 3197 3198 3199 3200 3201 3202 3202 3202 3203 3203 3204 3205 3205 3206 3206 3206 3206 3206 3207 3208 3208 3208 3208 3207 3208 3207 3206 3205 3204 3203 3204 3205
Wind_Speed
13 13 13 13 13 13 13 13 13 13 12 12 12 12 12 12 12 11 11 10 10 9 9 8 9 9 8 8 9 9 9 9 9 9 9 10 10 9 10 10 10 11
14 14 14 13 13 13 13 13 13 13 13 13 12 13 13 12 12 11 11 11 10 10 9 9 9 9 9 9 9 9 9 8 8 9 9 10 10 9 9 10 10 11
14 15 14 14 13 13 13 13 13 13 13 13 13 13 12 12 12 12 11 11 11 10 10 9 10 10 9 9 8 8 8 8 8 9 9 9 9 9 9 9 9 10
14 14 14 14 14 13 13 13 13 13 13 13 13 12 12 12 11 11 11 11 11 10 10 10 10 9 9 9 8 8 8 8 8 8 8 8 8 8 7 8 8 9
14 14 14 15 15 14 14 14 14 14 14 13 13 12 12 12 12 11 11 11 11 10 10 10 10 9 9 9 9 9 9 8 8 8 8 8 7 7 7 8 9 9
15 15 15 15 15 15 15 14 15 14 14 14 13 13 13 13 12 12 12 12 11 11 10 10 10 10 10 9 9 9 9 9 9 8 8 9 8 8 8 9 9 9
14 15 16 16 16 15 15 15 15 15 15 14 14 14 14 14 14 14 14 13 13 12 12 12 11 11 11 10 10 10 10 10 10 10 10 10 10 10 10 10 10 10
15 15 16 16 16 16 15 15 15 15 15 15 14 14 14 14 14 14 14 14 14 14 13 13 13 12 12 11 11 11 11 11 12 12 11 11 11 11 11 11 11 11
16 15 16 16 16 16 15 15 15 15 15 15 15 15 14 14 15 15 15 15 15 14 14 14 13 13 13 13 12 13 12 13 13 13 13 13 13 13 13 13 12 12
16 15 15 16 16 15 15 15 15 15 15 15 15 15 15 15 15 15 15 15 15 15 15 14 14 14 14 14 14 14 14 14 14 14 15 15 14 14 14 14 13 13
15 15 15 15 15 15 14 15 15 15 15 15 15 15 16 16 16 16 16 15 15 15 15 16 15 15 15 14 14 14 14 15 15 15 15 15 15 15 15 15 14 14
15 15 15 14 14 14 14 15 15 15 15 15 15 15 16 16 16 16 16 16 16 16 16 16 17 17 16 16 15 15 15 15 15 15 15 14 14 14 14 15 15 14
16 16 15 15 14 14 15 15 15 16 16 16 16 16 16 16 16 16 16 16 16 17 17 17 17 17 17 16 16 15 15 15 16 16 15 15 14 14 15 15 15 15
17 17 17 16 16 16 16 16 16 16 16 16 16 16 16 16 16 16 16 16 17 17 17 17 17 17 17 16 16 16 16 16 16 16 16 16 16 16 16 16 16 16
18 18 18 18 18 17 17 17 17 17 17 17 17 16 16 16 16 17 17 17 17 17 17 18 17 17 17 16 16 16 17 17 17 16 17 17 17 17 17 18 18 18
19 19 19 20 19 19 19 18 18 18 18 18 18 17 17 17 17 17 17 17 17 17 18 18 18 18 18 16 16 17 17 17 17 17 17 18 17 18 19 20 21 20
19 19 20 20 20 20 20 20 20 19 19 19 19 19 18 18 18 18 18 18 18 18 18 19 20 22 19 16 17 18 17 18 18 18 18 19 19 19 20 20 21 20
20 20 20 20 21 21 21 22 22 22 21 21 21 20 20 20 20 19 19 19 19 20 20 20 22 23 19 17 18 19 19 19 19 20 21 21 20 20 20 20 20 20
21 21 21 21 21 21 22 22 23 23 23 23 23 22 22 22 21 21 21 21 21 21 21 21 23 22 20 20 20 20 20 22 22 22 22 23 22 22 22 21 20 21
22 21 22 22 23 22 22 22 22 22 23 23 23 23 23 23 23 23 23 22 22 22 22 23 24 22 21 22 22 22 22 23 24 23 21 22 23 24 25 25 23 22
23 22 22 22 23 24 23 23 23 22 22 23 23 23 24 24 24 24 25 24 24 24 23 24 24 22 22 23 23 23 23 23 24 23 23 23 24 25 27 27 26 24
25 25 25 24 25 25 24 24 24 23 24 24 24 24 24 24 24 25 26 26 25 25 25 26 25 23 24 24 23 23 24 24 24 25 25 26 26 27 28 28 28 27
28 28 27 26 26 26 25 26 26 26 26 26 26 26 26 24 23 24 25 26 26 26 26 27 26 24 24 25 24 25 25 25 25 26 26 27 28 29 29 30 31 29
31 30 30 29 28 28 28 27 28 28 28 27 28 28 27 26 25 24 25 25 27 27 28 28 26 24 24 25 25 26 26 26 27 28 28 29 30 30 31 33 34 31
33 32 33 32 31 31 31 29 29 29 28 28 29 29 28 27 26 26 25 26 27 28 29 30 28 25 26 27 26 27 27 28 29 30 30 31 31 32 34 34 34 32
34 34 35 35 34 34 34 33 31 30 29 28 28 28 27 26 25 25 26 26 27 28 28 30 30 29 28 28 27 27 27 28 30 32 32 32 32 34 35 35 34 34
Wind_Direction
171 173 176 178 181 187 191 192 193 193 193 192 193 196 199 199 200 202 203 207 211 211 208 206 207 209 212 219 223 226 231 231 235 239 240 241 245 250 256 260 262 264
175 177 179 181 185 189 192 194 195 196 196 197 197 199 203 203 203 204 205 206 210 212 211 211 212 214 216 222 225 227 233 236 238 242 243 244 248 253 260 264 266 266
182 183 183 184 188 191 194 197 199 198 200 202 203 203 203 203 205 206 205 205 207 210 212 214 216 218 220 222 224 227 232 236 237 240 244 247 251 257 261 265 267 267
192 192 190 190 192 195 197 198 200 202 204 206 207 207 205 202 204 206 205 205 208 211 213 217 220 222 223 222 224 227 229 233 236 240 246 251 254 259 262 265 266 265
202 201 200 199 199 201 201 200 201 204 208 210 211 211 210 206 204 206 207 208 211 216 218 222 227 229 230 229 229 232 234 236 239 242 249 256 257 261 265 265 266 267
205 205 207 208 207 208 206 204 205 207 211 214 215 215 215 212 210 210 211 212 214 220 223 226 231 235 238 238 238 241 243 245 247 246 249 256 260 261 265 267 269 273
206 207 209 211 212 213 212 210 211 213 215 218 219 221 220 218 217 217 217 218 218 221 225 229 232 236 240 243 246 249 250 253 255 254 253 257 261 263 264 269 275 278
206 208 210 212 213 215 215 215 216 218 220 222 225 228 229 228 226 225 225 226 226 227 230 233 235 237 240 242 246 250 253 255 258 258 258 259 262 265 268 272 277 279
208 209 211 212 213 214 216 217 219 221 223 225 228 231 234 235 233 233 233 233 234 234 236 238 239 241 243 244 246 249 251 254 256 258 259 259 261 265 268 272 275 278
211 212 214 215 215 216 217 219 222 224 225 227 229 232 236 238 238 238 238 239 239 240 242 243 243 243 245 247 248 250 251 253 255 257 259 260 262 264 268 271 273 274
214 216 217 218 218 219 221 223 225 226 228 229 230 232 235 238 239 240 241 242 243 244 245 246 247 247 247 248 249 251 252 253 255 257 259 261 263 265 267 270 272 273
218 220 222 223 223 224 224 227 228 229 231 232 232 234 234 236 238 239 241 243 245 247 248 248 249 249 249 250 252 253 255 257 259 260 262 263 264 266 267 268 269 270
220 221 224 226 227 228 229 230 231 232 234 235 235 236 236 237 239 240 241 242 244 246 248 249 250 250 252 253 255 257 259 260 261 262 263 264 263 263 264 266 267 268
222 222 223 226 228 230 232 233 234 235 236 238 239 240 240 241 242 243 245 245 246 247 248 250 250 250 252 252 254 257 259 259 260 260 261 262 262 262 262 262 262 262
224 224 223 224 227 229 231 233 234 235 236 238 240 241 242 243 244 246 248 248 249 250 250 251 252 253 253 253 254 255 255 256 257 259 261 262 263 264 265 265 263 261
226 226 226 226 227 228 230 232 233 233 234 236 238 239 240 242 244 246 248 250 251 251 251 252 252 251 248 249 253 255 256 258 258 259 261 264 266 267 269 270 270 270
229 229 230 230 230 229 230 231 233 235 236 237 239 240 241 241 243 245 247 249 250 251 252 252 251 250 247 246 249 253 255 258 260 261 261 260 262 264 268 270 271 272
231 232 233 234 234 234 233 233 234 236 238 239 241 243 244 244 244 246 247 248 250 251 251 253 255 259 262 260 256 256 257 258 260 261 261 260 260 261 264 268 272 274
231 233 235 236 237 237 237 238 238 239 241 242 243 245 246 247 247 247 248 248 249 251 253 256 259 263 267 265 261 262 264 264 264 264 267 272 274 271 268 267 268 272
229 233 236 238 239 240 240 241 242 243 245 246 247 248 248 249 248 248 249 250 251 252 254 256 259 262 265 265 263 264 264 266 270 272 275 278 279 279 277 274 270 269
232 233 235 236 237 238 239 242 244 246 248 248 249 251 252 252 251 251 250 250 251 253 255 258 260 263 265 265 265 265 265 266 270 274 275 275 275 276 275 274 272 269
232 235 236 237 238 238 238 241 243 245 247 248 248 250 251 254 255 256 255 252 251 252 253 257 258 260 263 266 266 266 267 267 269 272 274 276 276 275 275 275 274 272
229 233 236 238 242 244 243 243 243 243 244 246 248 248 248 251 253 257 258 258 256 255 253 254 255 258 261 265 265 266 266 267 269 271 273 275 277 278 279 280 278 278
228 231 234 236 239 243 244 246 246 245 244 246 248 248 249 250 251 253 256 258 260 260 257 257 257 257 260 263 264 265 267 268 269 271 271 273 274 276 277 278 279 281
232 233 235 236 238 241 244 245 246 247 246 246 246 248 249 250 250 251 253 255 258 260 260 260 259 257 257 260 262 265 268 269 270 271 272 273 275 275 274 275 278 280
237 238 239 239 240 243 246 248 247 248 248 247 245 246 247 247 249 251 252 255 257 259 261 262 262 260 258 260 263 265 268 270 271 272 273 274 275 275 275 276 278 278